UAE656 OMDB-VRMM

Flight info

Callsign UAE656
Flight time 3h 42m
Altitude 35000
Route ANVIX7F ANVIX L223 TARDI N629 GIDAN P570 KITAL L894 ELBET ELBET1A
Aircraft B77W/H-SDE1E2E3FGHIJ2J3J4J5M1RWXY/LB1D1

Departure

Time 2026-04-26 22:40
Airport Dubai International Airport (OMDB)

Arrival

Time 2026-04-27 02:22
Airport Velana International Airport (VRMM)
Time Latitude Longitude Altitude Speed Heading
2026-04-26 21:47 25.25569 55.35076 29 ft 0 kts 204°
2026-04-26 22:26 25.25580 55.35082 29 ft 4 kts 204°
2026-04-26 22:26 25.25605 55.35094 32 ft 4 kts 204°
2026-04-26 22:27 25.25625 55.35104 32 ft 4 kts 217°
2026-04-26 22:27 25.25641 55.35125 32 ft 4 kts 257°
2026-04-26 22:27 25.25640 55.35152 32 ft 4 kts 300°
2026-04-26 22:27 25.25626 55.35177 32 ft 4 kts 302°
2026-04-26 22:28 25.25615 55.35197 32 ft 4 kts 302°
2026-04-26 22:28 25.25603 55.35217 32 ft 0 kts 302°
2026-04-26 22:28 25.25603 55.35218 32 ft 0 kts 302°
2026-04-26 22:29 25.25603 55.35217 32 ft 0 kts 302°
2026-04-26 22:31 25.25614 55.35198 32 ft 6 kts 302°
2026-04-26 22:31 25.25639 55.35158 32 ft 7 kts 317°
2026-04-26 22:31 25.25683 55.35157 30 ft 6 kts 19°
2026-04-26 22:32 25.25722 55.35182 29 ft 6 kts 32°
2026-04-26 22:32 25.25761 55.35209 29 ft 7 kts 31°
2026-04-26 22:32 25.25811 55.35242 29 ft 9 kts 31°
2026-04-26 22:32 25.25866 55.35279 30 ft 9 kts 31°
2026-04-26 22:33 25.25920 55.35316 30 ft 9 kts 31°
2026-04-26 22:33 25.26001 55.35424 26 ft 12 kts 72°
2026-04-26 22:33 25.25998 55.35530 26 ft 15 kts 109°
2026-04-26 22:34 25.25948 55.35629 26 ft 15 kts 121°
2026-04-26 22:34 25.25894 55.35725 26 ft 15 kts 122°
2026-04-26 22:34 25.25840 55.35820 27 ft 15 kts 121°
2026-04-26 22:34 25.25776 55.35935 27 ft 23 kts 122°
2026-04-26 22:35 25.25689 55.36089 27 ft 24 kts 122°
2026-04-26 22:35 25.25603 55.36243 27 ft 24 kts 122°
2026-04-26 22:35 25.25516 55.36397 27 ft 24 kts 122°
2026-04-26 22:35 25.25429 55.36551 27 ft 24 kts 122°
2026-04-26 22:36 25.25343 55.36705 26 ft 24 kts 122°
2026-04-26 22:36 25.25256 55.36860 27 ft 24 kts 122°
2026-04-26 22:36 25.25171 55.37011 27 ft 24 kts 121°
2026-04-26 22:36 25.25084 55.37165 28 ft 24 kts 122°
2026-04-26 22:37 25.24997 55.37319 28 ft 24 kts 122°
2026-04-26 22:37 25.24911 55.37473 28 ft 24 kts 122°
2026-04-26 22:37 25.24824 55.37627 28 ft 24 kts 121°
2026-04-26 22:37 25.24739 55.37780 27 ft 21 kts 122°
2026-04-26 22:38 25.24682 55.37880 27 ft 14 kts 122°
2026-04-26 22:38 25.24633 55.37967 27 ft 8 kts 122°
2026-04-26 22:38 25.24619 55.38025 28 ft 8 kts 71°
2026-04-26 22:38 25.24662 55.38066 29 ft 8 kts 33°
2026-04-26 22:39 25.24710 55.38099 30 ft 8 kts 31°
2026-04-26 22:39 25.24760 55.38102 31 ft 8 kts 323°
2026-04-26 22:39 25.24799 55.38038 30 ft 20 kts 301°
2026-04-26 22:39 25.24979 55.37712 30 ft 86 kts 301°
2026-04-26 22:40 25.25418 55.36922 30 ft 153 kts 301°
2026-04-26 22:40 25.26057 55.35773 107 ft 193 kts 300°
2026-04-26 22:40 25.26768 55.34517 761 ft 192 kts 300°
2026-04-26 22:40 25.27472 55.33274 1454 ft 193 kts 300°
2026-04-26 22:41 25.28196 55.31959 1902 ft 206 kts 301°
2026-04-26 22:41 25.28940 55.30559 2353 ft 214 kts 292°
2026-04-26 22:41 25.29151 55.28928 2797 ft 220 kts 262°
2026-04-26 22:41 25.28693 55.27317 3400 ft 222 kts 249°
2026-04-26 22:42 25.28041 55.25778 3953 ft 228 kts 249°
2026-04-26 22:42 25.27334 55.24148 4569 ft 230 kts 249°
2026-04-26 22:42 25.26651 55.22570 5230 ft 230 kts 249°
2026-04-26 22:42 25.25959 55.20966 5852 ft 232 kts 249°
2026-04-26 22:43 25.25268 55.19353 6484 ft 233 kts 249°
2026-04-26 22:43 25.24440 55.17812 6984 ft 240 kts 229°
2026-04-26 22:43 25.22971 55.16847 7383 ft 259 kts 198°
2026-04-26 22:43 25.21127 55.16730 7752 ft 272 kts 180°
2026-04-26 22:44 25.19245 55.17135 8144 ft 283 kts 156°
2026-04-26 22:44 25.17733 55.18559 8629 ft 295 kts 124°
2026-04-26 22:44 25.16740 55.20596 8915 ft 306 kts 117°
2026-04-26 22:44 25.15779 55.22694 9433 ft 313 kts 118°
2026-04-26 22:45 25.14769 55.24838 10083 ft 316 kts 118°
2026-04-26 22:45 25.13744 55.26988 10750 ft 318 kts 118°
2026-04-26 22:45 25.12706 55.29158 11430 ft 321 kts 119°
2026-04-26 22:45 25.11655 55.31346 12165 ft 324 kts 119°
2026-04-26 22:46 25.10601 55.33548 12992 ft 326 kts 118°
2026-04-26 22:46 25.09624 55.35837 13628 ft 337 kts 115°
2026-04-26 22:46 25.08634 55.38293 13806 ft 362 kts 115°
2026-04-26 22:46 25.07571 55.40914 13982 ft 386 kts 116°
2026-04-26 22:47 25.06461 55.43701 14165 ft 408 kts 114°
2026-04-26 22:47 25.05343 55.46628 14590 ft 420 kts 114°
2026-04-26 22:47 25.04202 55.49634 15142 ft 429 kts 115°
2026-04-26 22:47 25.03035 55.52679 15817 ft 432 kts 115°
2026-04-26 22:48 25.01847 55.55732 16554 ft 434 kts 117°
2026-04-26 22:48 25.00429 55.58685 17208 ft 437 kts 124°
2026-04-26 22:48 24.98806 55.61538 17865 ft 441 kts 126°
2026-04-26 22:48 24.97143 55.64412 18459 ft 447 kts 125°
2026-04-26 22:49 24.95532 55.67311 19019 ft 452 kts 124°
2026-04-26 22:49 24.93908 55.70296 19598 ft 455 kts 125°
2026-04-26 22:49 24.92131 55.73201 20178 ft 458 kts 129°
2026-04-26 22:49 24.90212 55.76020 20746 ft 461 kts 131°
2026-04-26 22:50 24.88253 55.78844 21314 ft 466 kts 130°
2026-04-26 22:50 24.86302 55.81720 21949 ft 468 kts 130°
2026-04-26 22:50 24.84366 55.84630 22526 ft 473 kts 129°
2026-04-26 22:50 24.82412 55.87565 23011 ft 478 kts 129°
2026-04-26 22:51 24.80415 55.90526 23499 ft 483 kts 129°
2026-04-26 22:51 24.78425 55.93459 23979 ft 485 kts 130°
2026-04-26 22:51 24.76193 55.96242 24408 ft 485 kts 140°
2026-04-26 22:51 24.73675 55.98721 24826 ft 487 kts 143°
2026-04-26 22:52 24.71100 56.01172 25262 ft 491 kts 142°
2026-04-26 22:52 24.68561 56.03704 25743 ft 494 kts 141°
2026-04-26 22:52 24.66041 56.06293 26187 ft 498 kts 140°
2026-04-26 22:52 24.63505 56.08911 26624 ft 500 kts 140°
2026-04-26 22:53 24.60948 56.11538 27047 ft 504 kts 140°
2026-04-26 22:53 24.58381 56.14171 27449 ft 507 kts 140°
2026-04-26 22:53 24.55882 56.16939 27823 ft 513 kts 135°
2026-04-26 22:53 24.53542 56.19922 28226 ft 516 kts 133°
2026-04-26 22:54 24.51211 56.22943 28583 ft 520 kts 133°
2026-04-26 22:54 24.48865 56.25977 28891 ft 523 kts 133°
2026-04-26 22:54 24.46493 56.29025 29203 ft 526 kts 134°
2026-04-26 22:54 24.44108 56.32072 29568 ft 526 kts 134°
2026-04-26 22:55 24.41741 56.35077 29964 ft 527 kts 133°
2026-04-26 22:55 24.39315 56.38158 30327 ft 527 kts 134°
2026-04-26 22:55 24.36947 56.41163 30644 ft 528 kts 133°
2026-04-26 22:55 24.34539 56.44218 30925 ft 530 kts 133°
2026-04-26 22:56 24.32120 56.47284 31236 ft 531 kts 133°
2026-04-26 22:56 24.29715 56.50372 31566 ft 532 kts 131°
2026-04-26 22:56 24.27475 56.53612 31892 ft 534 kts 128°
2026-04-26 22:56 24.25295 56.56920 32193 ft 536 kts 127°
2026-04-26 22:57 24.23124 56.60242 32539 ft 536 kts 127°
2026-04-26 22:57 24.20951 56.63559 32897 ft 536 kts 127°
2026-04-26 22:57 24.18768 56.66872 33194 ft 537 kts 127°
2026-04-26 22:57 24.16569 56.70189 33490 ft 538 kts 127°
2026-04-26 22:58 24.14360 56.73508 33791 ft 539 kts 127°
2026-04-26 22:58 24.12178 56.76783 34066 ft 540 kts 127°
2026-04-26 22:58 24.09965 56.80102 34372 ft 539 kts 127°
2026-04-26 22:58 24.07758 56.83413 34700 ft 538 kts 127°
2026-04-26 22:59 24.05548 56.86727 34770 ft 541 kts 127°
2026-04-26 22:59 24.01098 56.93377 34823 ft 538 kts 127°
2026-04-26 23:00 23.96684 56.99934 34827 ft 534 kts 127°
2026-04-26 23:00 23.92283 57.06470 34817 ft 533 kts 127°
2026-04-26 23:01 23.87913 57.12956 34840 ft 533 kts 127°
2026-04-26 23:01 23.83524 57.19483 34820 ft 533 kts 127°
2026-04-26 23:02 23.79124 57.26024 34832 ft 534 kts 127°
2026-04-26 23:02 23.74714 57.32572 34833 ft 535 kts 127°
2026-04-26 23:03 23.71034 57.38003 34836 ft 535 kts 128°
2026-04-26 23:03 23.65657 57.45426 34836 ft 536 kts 129°
2026-04-26 23:04 23.61747 57.50733 34827 ft 536 kts 129°
2026-04-26 23:04 23.57112 57.57092 34852 ft 535 kts 129°
2026-04-26 23:05 23.52493 57.63459 34840 ft 535 kts 129°
2026-04-26 23:05 23.47901 57.69770 34871 ft 535 kts 129°
2026-04-26 23:06 23.43263 57.76099 34857 ft 534 kts 129°
2026-04-26 23:06 23.38624 57.82416 34862 ft 533 kts 129°
2026-04-26 23:07 23.34002 57.88712 34866 ft 532 kts 129°
2026-04-26 23:07 23.29369 57.95018 34857 ft 533 kts 129°
2026-04-26 23:08 23.24750 58.01309 34868 ft 531 kts 127°
2026-04-26 23:08 23.20510 58.07869 34872 ft 529 kts 123°
2026-04-26 23:09 23.16389 58.14500 34872 ft 529 kts 124°
2026-04-26 23:09 23.12243 58.21100 34874 ft 528 kts 124°
2026-04-26 23:10 23.08081 58.27678 34875 ft 528 kts 124°
2026-04-26 23:10 23.03816 58.34172 34863 ft 528 kts 130°
2026-04-26 23:11 22.98557 58.39645 34866 ft 527 kts 143°
2026-04-26 23:11 22.92412 58.43969 34875 ft 525 kts 151°
2026-04-26 23:12 22.86121 58.48014 34865 ft 526 kts 150°
2026-04-26 23:12 22.79854 58.52123 34856 ft 526 kts 150°
2026-04-26 23:13 22.73644 58.56240 34864 ft 526 kts 150°
2026-04-26 23:13 22.67396 58.60372 34852 ft 526 kts 150°
2026-04-26 23:14 22.61128 58.64507 34847 ft 526 kts 150°
2026-04-26 23:14 22.54868 58.68636 34845 ft 526 kts 149°
2026-04-26 23:15 22.48619 58.72754 34847 ft 525 kts 149°
2026-04-26 23:15 22.42415 58.76839 34843 ft 525 kts 149°
2026-04-26 23:16 22.36179 58.80940 34841 ft 524 kts 149°
2026-04-26 23:16 22.29948 58.85034 34837 ft 524 kts 149°
2026-04-26 23:17 22.23715 58.89126 34839 ft 523 kts 149°
2026-04-26 23:17 22.17533 58.93174 34832 ft 523 kts 149°
2026-04-26 23:18 22.11311 58.97240 34826 ft 523 kts 149°
2026-04-26 23:18 22.05083 59.01309 34827 ft 523 kts 149°
2026-04-26 23:19 21.98859 59.05372 34831 ft 523 kts 149°
2026-04-26 23:19 21.92618 59.09442 34824 ft 524 kts 149°
2026-04-26 23:20 21.86380 59.13506 34822 ft 524 kts 149°
2026-04-26 23:20 21.80131 59.17572 34811 ft 524 kts 149°
2026-04-26 23:21 21.73925 59.21607 34806 ft 524 kts 149°
2026-04-26 23:21 21.67680 59.25664 34806 ft 524 kts 149°
2026-04-26 23:22 21.61434 59.29717 34798 ft 524 kts 149°
2026-04-26 23:22 21.55190 59.33767 34799 ft 524 kts 149°
2026-04-26 23:23 21.48958 59.37811 34791 ft 523 kts 149°
2026-04-26 23:23 21.42721 59.41854 34788 ft 523 kts 149°
2026-04-26 23:24 21.36493 59.45888 34788 ft 522 kts 149°
2026-04-26 23:24 21.30270 59.49915 34787 ft 522 kts 148°
2026-04-26 23:25 21.24089 59.53910 34794 ft 522 kts 148°
2026-04-26 23:25 21.17869 59.57927 34790 ft 522 kts 148°
2026-04-26 23:26 21.11649 59.61943 34792 ft 521 kts 148°
2026-04-26 23:26 21.05423 59.65961 34787 ft 521 kts 148°
2026-04-26 23:27 20.99211 59.69964 34790 ft 521 kts 148°
2026-04-26 23:27 20.93043 59.73920 34794 ft 520 kts 148°
2026-04-26 23:28 20.86831 59.77897 34794 ft 520 kts 148°
2026-04-26 23:28 20.80616 59.81876 34794 ft 520 kts 148°
2026-04-26 23:29 20.74412 59.85845 34792 ft 519 kts 148°
2026-04-26 23:29 20.68208 59.89810 34803 ft 519 kts 148°
2026-04-26 23:30 20.62043 59.93747 34795 ft 519 kts 148°
2026-04-26 23:30 20.55849 59.97698 34797 ft 518 kts 148°
2026-04-26 23:31 20.49653 60.01647 34801 ft 518 kts 148°
2026-04-26 23:31 20.43460 60.05591 34797 ft 518 kts 148°
2026-04-26 23:32 20.37277 60.09524 34802 ft 517 kts 148°
2026-04-26 23:32 20.31093 60.13454 34801 ft 517 kts 148°
2026-04-26 23:33 20.24909 60.17380 34811 ft 517 kts 148°
2026-04-26 23:33 20.18728 60.21302 34807 ft 517 kts 148°
2026-04-26 23:34 20.12587 60.25195 34801 ft 517 kts 148°
2026-04-26 23:34 20.06418 60.29141 34804 ft 516 kts 145°
2026-04-26 23:35 20.00794 60.33835 34807 ft 513 kts 136°
2026-04-26 23:35 19.95517 60.38944 34805 ft 513 kts 135°
2026-04-26 23:36 19.90222 60.44043 34813 ft 513 kts 136°
2026-04-26 23:36 19.84905 60.49112 34811 ft 514 kts 136°
2026-04-26 23:37 19.79572 60.54169 34809 ft 514 kts 136°
2026-04-26 23:37 19.74240 60.59219 34809 ft 514 kts 136°
2026-04-26 23:38 19.68944 60.64234 34816 ft 513 kts 136°
2026-04-26 23:38 19.63610 60.69282 34812 ft 513 kts 136°
2026-04-26 23:39 19.58276 60.74325 34815 ft 513 kts 136°
2026-04-26 23:39 19.52936 60.79369 34812 ft 513 kts 136°
2026-04-26 23:40 19.47631 60.84375 34812 ft 513 kts 136°
2026-04-26 23:40 19.42292 60.89409 34815 ft 513 kts 136°
2026-04-26 23:41 19.36954 60.94438 34813 ft 513 kts 136°
2026-04-26 23:41 19.31612 60.99466 34814 ft 513 kts 136°
2026-04-26 23:42 19.26271 61.04488 34822 ft 513 kts 136°
2026-04-26 23:42 19.18278 61.11994 34816 ft 513 kts 136°
2026-04-26 23:43 19.12935 61.17007 34825 ft 513 kts 136°
2026-04-26 23:43 19.07584 61.22022 34823 ft 513 kts 136°
2026-04-26 23:44 19.02238 61.27029 34817 ft 513 kts 136°
2026-04-26 23:44 18.96892 61.32030 34823 ft 513 kts 136°
2026-04-26 23:45 18.92472 61.36162 34821 ft 513 kts 136°
2026-04-26 23:45 18.86245 61.41979 34828 ft 512 kts 136°
2026-04-26 23:46 18.80905 61.46961 34824 ft 512 kts 136°
2026-04-26 23:46 18.75555 61.51949 34827 ft 512 kts 135°
2026-04-26 23:47 18.70213 61.56924 34828 ft 512 kts 135°
2026-04-26 23:47 18.64873 61.61894 34833 ft 512 kts 135°
2026-04-26 23:48 18.59536 61.66857 34834 ft 511 kts 135°
2026-04-26 23:48 18.54234 61.71783 34836 ft 511 kts 135°
2026-04-26 23:49 18.48892 61.76741 34841 ft 511 kts 135°
2026-04-26 23:49 18.43549 61.81696 34838 ft 510 kts 135°
2026-04-26 23:50 18.38240 61.86616 34838 ft 510 kts 135°
2026-04-26 23:50 18.32913 61.91548 34839 ft 510 kts 135°
2026-04-26 23:51 18.28481 61.95648 34844 ft 510 kts 135°
2026-04-26 23:51 18.23148 62.00578 34846 ft 509 kts 135°
2026-04-26 23:52 18.17823 62.05496 34849 ft 509 kts 135°
2026-04-26 23:52 18.12498 62.10411 34849 ft 508 kts 135°
2026-04-26 23:53 18.07184 62.15311 34849 ft 508 kts 135°
2026-04-26 23:53 18.01904 62.20175 34852 ft 507 kts 135°
2026-04-26 23:54 17.96596 62.25061 34854 ft 507 kts 135°
2026-04-26 23:54 17.91283 62.29948 34854 ft 507 kts 135°
2026-04-26 23:55 17.85979 62.34823 34853 ft 506 kts 135°
2026-04-26 23:55 17.80684 62.39685 34855 ft 506 kts 135°
2026-04-26 23:56 17.75416 62.44519 34855 ft 506 kts 135°
2026-04-26 23:56 17.70123 62.49371 34856 ft 506 kts 135°
2026-04-26 23:57 17.64819 62.54229 34858 ft 505 kts 136°
2026-04-26 23:57 17.59526 62.59074 34852 ft 504 kts 136°
2026-04-26 23:58 17.54232 62.63915 34856 ft 504 kts 136°
2026-04-26 23:58 17.48987 62.68708 34855 ft 503 kts 136°
2026-04-26 23:59 17.43711 62.73525 34855 ft 503 kts 136°
2026-04-26 23:59 17.38437 62.78338 34858 ft 501 kts 136°
2026-04-27 00:00 17.33179 62.83131 34857 ft 500 kts 136°
2026-04-27 00:00 17.27932 62.87910 34860 ft 499 kts 136°
2026-04-27 00:01 17.22735 62.92641 34856 ft 497 kts 136°
2026-04-27 00:01 17.17517 62.97387 34857 ft 496 kts 136°
2026-04-27 00:02 17.12318 63.02112 34862 ft 494 kts 136°
2026-04-27 00:02 17.07133 63.06822 34851 ft 493 kts 136°
2026-04-27 00:03 17.01951 63.11526 34856 ft 492 kts 136°
2026-04-27 00:03 16.96734 63.16156 34863 ft 492 kts 139°
2026-04-27 00:04 16.91487 63.20676 34856 ft 492 kts 139°
2026-04-27 00:04 16.86209 63.25218 34858 ft 491 kts 139°
2026-04-27 00:05 16.80939 63.29772 34857 ft 491 kts 139°
2026-04-27 00:05 16.75673 63.34331 34858 ft 491 kts 139°
2026-04-27 00:06 16.70405 63.38890 34859 ft 492 kts 139°
2026-04-27 00:06 16.65167 63.43418 34858 ft 492 kts 139°
2026-04-27 00:07 16.59893 63.47974 34858 ft 492 kts 140°
2026-04-27 00:07 16.54618 63.52527 34856 ft 491 kts 140°
2026-04-27 00:08 16.49350 63.57070 34855 ft 490 kts 140°
2026-04-27 00:08 16.44097 63.61598 34857 ft 489 kts 140°
2026-04-27 00:09 16.38854 63.66112 34857 ft 489 kts 140°
2026-04-27 00:09 16.33617 63.70619 34858 ft 488 kts 140°
2026-04-27 00:10 16.28378 63.75125 34861 ft 488 kts 143°
2026-04-27 00:10 16.23177 63.79595 34856 ft 487 kts 143°
2026-04-27 00:11 16.17947 63.84086 34857 ft 487 kts 143°
2026-04-27 00:11 16.12721 63.88571 34857 ft 486 kts 143°
2026-04-27 00:12 16.07496 63.93051 34854 ft 486 kts 143°
2026-04-27 00:12 16.02303 63.97502 34856 ft 486 kts 144°
2026-04-27 00:13 15.97093 64.01964 34854 ft 485 kts 144°
2026-04-27 00:13 15.91885 64.06420 34853 ft 484 kts 145°
2026-04-27 00:14 15.86697 64.10857 34855 ft 482 kts 145°
2026-04-27 00:14 15.81520 64.15280 34857 ft 481 kts 145°
2026-04-27 00:15 15.76345 64.19699 34857 ft 481 kts 145°
2026-04-27 00:15 15.71180 64.24107 34858 ft 480 kts 145°
2026-04-27 00:16 15.66019 64.28509 34857 ft 480 kts 145°
2026-04-27 00:16 15.60896 64.32874 34858 ft 479 kts 145°
2026-04-27 00:17 15.55736 64.37270 34852 ft 480 kts 146°
2026-04-27 00:17 15.50567 64.41669 34856 ft 480 kts 146°
2026-04-27 00:18 15.45392 64.46069 34854 ft 481 kts 146°
2026-04-27 00:18 15.40254 64.50437 34855 ft 481 kts 146°
2026-04-27 00:19 15.35083 64.54830 34855 ft 481 kts 146°
2026-04-27 00:19 15.29902 64.59227 34855 ft 481 kts 146°
2026-04-27 00:20 15.24725 64.63619 34854 ft 480 kts 146°
2026-04-27 00:20 15.19547 64.68008 34854 ft 480 kts 146°
2026-04-27 00:21 15.14376 64.72389 34858 ft 480 kts 146°
2026-04-27 00:21 15.09245 64.76734 34850 ft 479 kts 146°
2026-04-27 00:22 15.04093 64.81093 34852 ft 478 kts 146°
2026-04-27 00:22 14.98938 64.85452 34851 ft 478 kts 146°
2026-04-27 00:23 14.93790 64.89801 34852 ft 477 kts 146°
2026-04-27 00:23 14.88646 64.94145 34853 ft 477 kts 146°
2026-04-27 00:24 14.83493 64.98495 34850 ft 477 kts 146°
2026-04-27 00:24 14.78371 65.02815 34852 ft 477 kts 146°
2026-04-27 00:25 14.73215 65.07160 34849 ft 478 kts 146°
2026-04-27 00:25 14.68059 65.11504 34850 ft 478 kts 146°
2026-04-27 00:26 14.62929 65.15824 34849 ft 479 kts 146°
2026-04-27 00:26 14.57760 65.20173 34848 ft 479 kts 146°
2026-04-27 00:27 14.52602 65.24507 34842 ft 477 kts 146°
2026-04-27 00:27 14.47456 65.28829 34846 ft 476 kts 146°
2026-04-27 00:28 14.42326 65.33136 34847 ft 474 kts 146°
2026-04-27 00:28 14.37210 65.37428 34846 ft 473 kts 146°
2026-04-27 00:29 14.32138 65.41682 34856 ft 472 kts 146°
2026-04-27 00:29 14.27043 65.45952 34864 ft 472 kts 146°
2026-04-27 00:30 14.21950 65.50218 34847 ft 471 kts 146°
2026-04-27 00:30 14.16866 65.54474 34846 ft 471 kts 146°
2026-04-27 00:31 14.11783 65.58727 34856 ft 470 kts 146°
2026-04-27 00:31 14.06700 65.62976 34856 ft 470 kts 146°
2026-04-27 00:32 14.01615 65.67225 34855 ft 470 kts 146°
2026-04-27 00:32 13.96559 65.71448 34842 ft 471 kts 146°
2026-04-27 00:33 13.91469 65.75696 34856 ft 471 kts 146°
2026-04-27 00:33 13.86375 65.79946 34859 ft 471 kts 146°
2026-04-27 00:34 13.81273 65.84199 34861 ft 472 kts 146°
2026-04-27 00:34 13.76198 65.88427 34844 ft 472 kts 146°
2026-04-27 00:35 13.71096 65.92676 34843 ft 472 kts 146°
2026-04-27 00:35 13.65991 65.96925 34861 ft 471 kts 146°
2026-04-27 00:36 13.60895 66.01164 34852 ft 470 kts 146°
2026-04-27 00:36 13.55810 66.05391 34846 ft 469 kts 146°
2026-04-27 00:37 13.50734 66.09609 34854 ft 469 kts 146°
2026-04-27 00:37 13.45665 66.13818 34854 ft 468 kts 147°
2026-04-27 00:38 13.40628 66.17998 34849 ft 468 kts 146°
2026-04-27 00:38 13.35568 66.22195 34853 ft 467 kts 146°
2026-04-27 00:39 13.30511 66.26387 34850 ft 467 kts 147°
2026-04-27 00:39 13.25459 66.30572 34850 ft 466 kts 147°
2026-04-27 00:40 13.21263 66.34047 34854 ft 466 kts 147°
2026-04-27 00:40 13.16213 66.38227 34850 ft 466 kts 147°
2026-04-27 00:41 13.11168 66.42400 34853 ft 466 kts 147°
2026-04-27 00:41 13.06143 66.46554 34854 ft 466 kts 146°
2026-04-27 00:42 13.01093 66.50727 34851 ft 466 kts 146°
2026-04-27 00:42 12.96049 66.54893 34851 ft 465 kts 146°
2026-04-27 00:43 12.91001 66.59060 34845 ft 465 kts 146°
2026-04-27 00:43 12.85955 66.63223 34851 ft 465 kts 146°
2026-04-27 00:44 12.80909 66.67384 34851 ft 465 kts 146°
2026-04-27 00:44 12.75864 66.71542 34849 ft 465 kts 146°
2026-04-27 00:45 12.70846 66.75675 34856 ft 465 kts 146°
2026-04-27 00:45 12.65805 66.79826 34855 ft 465 kts 146°
2026-04-27 00:46 12.60759 66.83977 34851 ft 465 kts 146°
2026-04-27 00:46 12.55714 66.88126 34852 ft 465 kts 146°
2026-04-27 00:47 12.50663 66.92278 34851 ft 465 kts 146°
2026-04-27 00:47 12.45647 66.96399 34851 ft 465 kts 146°
2026-04-27 00:48 12.40604 67.00540 34847 ft 465 kts 146°
2026-04-27 00:48 12.35559 67.04681 34850 ft 465 kts 146°
2026-04-27 00:49 12.30512 67.08821 34847 ft 465 kts 146°
2026-04-27 00:49 12.25464 67.12960 34847 ft 465 kts 146°
2026-04-27 00:50 12.17889 67.19168 34847 ft 465 kts 146°
2026-04-27 00:51 12.12873 67.23275 34838 ft 464 kts 146°
2026-04-27 00:51 12.07831 67.27403 34844 ft 464 kts 146°
2026-04-27 00:52 12.02787 67.31530 34840 ft 463 kts 146°
2026-04-27 00:52 11.97760 67.35641 34842 ft 463 kts 146°
2026-04-27 00:53 11.92736 67.39746 34841 ft 462 kts 146°
2026-04-27 00:53 11.87708 67.43851 34838 ft 462 kts 146°
2026-04-27 00:54 11.82714 67.47927 34841 ft 462 kts 146°
2026-04-27 00:54 11.77688 67.52028 34838 ft 462 kts 146°
2026-04-27 00:55 11.72658 67.56132 34844 ft 462 kts 146°
2026-04-27 00:55 11.67628 67.60233 34845 ft 462 kts 146°
2026-04-27 00:56 11.62597 67.64333 34842 ft 463 kts 146°
2026-04-27 00:56 11.57592 67.68410 34845 ft 463 kts 146°
2026-04-27 00:57 11.52557 67.72509 34839 ft 463 kts 146°
2026-04-27 00:57 11.47517 67.76611 34840 ft 463 kts 146°
2026-04-27 00:58 11.42487 67.80703 34843 ft 463 kts 146°
2026-04-27 00:58 11.37445 67.84802 34841 ft 463 kts 146°
2026-04-27 00:59 11.32434 67.88875 34841 ft 463 kts 146°
2026-04-27 00:59 11.27392 67.92971 34841 ft 463 kts 146°
2026-04-27 01:00 11.22354 67.97061 34843 ft 463 kts 146°
2026-04-27 01:00 11.17323 68.01144 34840 ft 462 kts 146°
2026-04-27 01:01 11.12295 68.05223 34843 ft 462 kts 146°
2026-04-27 01:01 11.07262 68.09303 34840 ft 462 kts 146°
2026-04-27 01:02 11.02263 68.13355 34851 ft 462 kts 146°
2026-04-27 01:02 10.97233 68.17429 34841 ft 462 kts 146°
2026-04-27 01:03 10.92202 68.21503 34833 ft 462 kts 146°
2026-04-27 01:03 10.87167 68.25578 34849 ft 462 kts 146°
2026-04-27 01:04 10.82131 68.29652 34855 ft 462 kts 146°
2026-04-27 01:04 10.77090 68.33729 34852 ft 462 kts 146°
2026-04-27 01:05 10.72050 68.37802 34838 ft 463 kts 146°
2026-04-27 01:05 10.67036 68.41854 34835 ft 463 kts 146°
2026-04-27 01:06 10.61991 68.45928 34842 ft 463 kts 146°
2026-04-27 01:06 10.56948 68.49999 34852 ft 463 kts 146°
2026-04-27 01:07 10.51902 68.54070 34847 ft 462 kts 145°
2026-04-27 01:07 10.46860 68.58137 34831 ft 462 kts 145°
2026-04-27 01:08 10.41854 68.62173 34845 ft 462 kts 145°
2026-04-27 01:08 10.36817 68.66232 34843 ft 461 kts 145°
2026-04-27 01:09 10.31790 68.70281 34845 ft 461 kts 145°
2026-04-27 01:09 10.26761 68.74330 34842 ft 461 kts 145°
2026-04-27 01:10 10.21738 68.78374 34846 ft 461 kts 145°
2026-04-27 01:10 10.16713 68.82415 34845 ft 461 kts 145°
2026-04-27 01:11 10.11689 68.86457 34843 ft 460 kts 145°
2026-04-27 01:11 10.06689 68.90476 34846 ft 460 kts 145°
2026-04-27 01:12 10.01661 68.94517 34842 ft 460 kts 145°
2026-04-27 01:12 9.96635 68.98553 34845 ft 460 kts 145°
2026-04-27 01:13 9.91637 69.02566 34844 ft 460 kts 145°
2026-04-27 01:13 9.86608 69.06603 34845 ft 460 kts 145°
2026-04-27 01:14 9.81586 69.10633 34843 ft 460 kts 145°
2026-04-27 01:14 9.76565 69.14660 34842 ft 460 kts 145°
2026-04-27 01:15 9.71575 69.18660 34844 ft 460 kts 145°
2026-04-27 01:15 9.66555 69.22676 34845 ft 460 kts 145°
2026-04-27 01:16 9.61534 69.26693 34846 ft 460 kts 145°
2026-04-27 01:16 9.56506 69.30714 34847 ft 460 kts 145°
2026-04-27 01:17 9.51484 69.34731 34847 ft 460 kts 144°
2026-04-27 01:17 9.46458 69.38749 34845 ft 460 kts 144°
2026-04-27 01:18 9.41471 69.42735 34845 ft 459 kts 145°
2026-04-27 01:18 9.36442 69.46752 34847 ft 459 kts 145°
2026-04-27 01:19 9.31416 69.50766 34849 ft 459 kts 145°
2026-04-27 01:19 9.26400 69.54770 34844 ft 459 kts 144°
2026-04-27 01:20 9.21376 69.58779 34852 ft 459 kts 144°
2026-04-27 01:20 9.16360 69.62779 34851 ft 459 kts 144°
2026-04-27 01:21 9.11374 69.66756 34850 ft 459 kts 144°
2026-04-27 01:21 9.06355 69.70755 34852 ft 459 kts 144°
2026-04-27 01:22 9.01340 69.74752 34847 ft 459 kts 144°
2026-04-27 01:22 8.96327 69.78745 34850 ft 459 kts 144°
2026-04-27 01:23 8.91314 69.82736 34850 ft 459 kts 144°
2026-04-27 01:23 8.86292 69.86733 34846 ft 459 kts 144°
2026-04-27 01:24 8.81309 69.90698 34848 ft 458 kts 144°
2026-04-27 01:24 8.76289 69.94690 34849 ft 458 kts 144°
2026-04-27 01:25 8.71270 69.98681 34852 ft 458 kts 144°
2026-04-27 01:25 8.66258 70.02664 34851 ft 458 kts 144°
2026-04-27 01:26 8.61251 70.06642 34853 ft 458 kts 144°
2026-04-27 01:26 8.56272 70.10597 34854 ft 458 kts 144°
2026-04-27 01:27 8.51263 70.14574 34854 ft 458 kts 144°
2026-04-27 01:27 8.46256 70.18548 34854 ft 458 kts 144°
2026-04-27 01:28 8.41238 70.22529 34853 ft 458 kts 144°
2026-04-27 01:28 8.37073 70.25833 34855 ft 458 kts 144°
2026-04-27 01:29 8.32069 70.29801 34855 ft 458 kts 144°
2026-04-27 01:29 8.27057 70.33773 34855 ft 458 kts 144°
2026-04-27 01:30 8.22047 70.37744 34852 ft 457 kts 144°
2026-04-27 01:30 8.17068 70.41688 34855 ft 457 kts 144°
2026-04-27 01:31 8.12058 70.45655 34858 ft 457 kts 144°
2026-04-27 01:31 8.07047 70.49622 34855 ft 457 kts 144°
2026-04-27 01:32 8.02035 70.53588 34852 ft 458 kts 144°
2026-04-27 01:32 7.97053 70.57530 34855 ft 457 kts 144°
2026-04-27 01:33 7.92047 70.61489 34852 ft 457 kts 144°
2026-04-27 01:33 7.87035 70.65452 34853 ft 457 kts 144°
2026-04-27 01:34 7.82026 70.69410 34858 ft 457 kts 144°
2026-04-27 01:34 7.77026 70.73362 34854 ft 457 kts 144°
2026-04-27 01:35 7.72048 70.77294 34853 ft 457 kts 144°
2026-04-27 01:35 7.67045 70.81245 34856 ft 456 kts 144°
2026-04-27 01:36 7.62044 70.85193 34857 ft 457 kts 144°
2026-04-27 01:36 7.57040 70.89143 34858 ft 456 kts 144°
2026-04-27 01:37 7.52037 70.93091 34857 ft 456 kts 144°
2026-04-27 01:37 7.47031 70.97036 34861 ft 456 kts 144°
2026-04-27 01:38 7.42029 71.00969 34862 ft 456 kts 144°
2026-04-27 01:38 7.37056 71.04880 34860 ft 456 kts 144°
2026-04-27 01:39 7.32053 71.08814 34859 ft 456 kts 144°
2026-04-27 01:39 7.27047 71.12751 34861 ft 456 kts 144°
2026-04-27 01:40 7.22043 71.16685 34863 ft 456 kts 144°
2026-04-27 01:40 7.17068 71.20595 34860 ft 456 kts 144°
2026-04-27 01:41 7.12062 71.24528 34859 ft 456 kts 144°
2026-04-27 01:41 7.07051 71.28463 34863 ft 456 kts 144°
2026-04-27 01:42 7.02041 71.32397 34863 ft 456 kts 144°
2026-04-27 01:42 6.97032 71.36330 34864 ft 456 kts 144°
2026-04-27 01:43 6.92023 71.40261 34863 ft 456 kts 144°
2026-04-27 01:43 6.87014 71.44191 34864 ft 456 kts 144°
2026-04-27 01:44 6.82030 71.48099 34864 ft 457 kts 144°
2026-04-27 01:44 6.77018 71.52030 34862 ft 457 kts 144°
2026-04-27 01:45 6.72002 71.55963 34864 ft 457 kts 144°
2026-04-27 01:45 6.66983 71.59896 34864 ft 457 kts 144°
2026-04-27 01:46 6.61964 71.63829 34862 ft 457 kts 144°
2026-04-27 01:46 6.56946 71.67760 34867 ft 457 kts 144°
2026-04-27 01:47 6.51956 71.71668 34864 ft 457 kts 144°
2026-04-27 01:47 6.46934 71.75600 34864 ft 457 kts 144°
2026-04-27 01:48 6.41911 71.79533 34865 ft 457 kts 144°
2026-04-27 01:48 6.36875 71.83454 34865 ft 457 kts 146°
2026-04-27 01:49 6.31442 71.86744 34875 ft 455 kts 153°
2026-04-27 01:49 6.25869 71.89684 34868 ft 455 kts 153°
2026-04-27 01:50 6.20284 71.92706 34866 ft 456 kts 152°
2026-04-27 01:50 6.14724 71.95798 34870 ft 456 kts 152°
2026-04-27 01:51 6.09177 71.98905 34870 ft 456 kts 152°
2026-04-27 01:51 6.03653 72.01996 34868 ft 456 kts 152°
2026-04-27 01:52 5.98099 72.05099 34866 ft 456 kts 152°
2026-04-27 01:52 5.92548 72.08201 34869 ft 456 kts 152°
2026-04-27 01:53 5.86992 72.11303 34868 ft 456 kts 152°
2026-04-27 01:53 5.81439 72.14399 34869 ft 456 kts 152°
2026-04-27 01:54 5.75888 72.17492 34868 ft 456 kts 152°
2026-04-27 01:54 5.70370 72.20568 34869 ft 456 kts 152°
2026-04-27 01:55 5.64820 72.23662 34868 ft 456 kts 152°
2026-04-27 01:55 5.59262 72.26760 34867 ft 456 kts 152°
2026-04-27 01:56 5.50920 72.31407 34866 ft 457 kts 152°
2026-04-27 01:56 5.45364 72.34502 34866 ft 457 kts 152°
2026-04-27 01:57 5.39803 72.37600 34866 ft 457 kts 152°
2026-04-27 01:57 5.34275 72.40677 34866 ft 457 kts 152°
2026-04-27 01:58 5.28709 72.43775 34866 ft 457 kts 152°
2026-04-27 01:58 5.23137 72.46877 34866 ft 457 kts 152°
2026-04-27 01:59 5.20356 72.48424 34736 ft 459 kts 152°
2026-04-27 01:59 5.17508 72.50008 33899 ft 471 kts 152°
2026-04-27 01:59 5.14683 72.51579 33061 ft 471 kts 151°
2026-04-27 01:59 5.11812 72.53176 32202 ft 472 kts 151°
2026-04-27 02:00 5.08956 72.54765 31598 ft 467 kts 151°
2026-04-27 02:00 5.06118 72.56343 30999 ft 464 kts 150°
2026-04-27 02:00 5.03304 72.57908 30420 ft 461 kts 150°
2026-04-27 02:00 5.00514 72.59460 29841 ft 458 kts 150°
2026-04-27 02:01 4.97731 72.61007 29185 ft 455 kts 150°
2026-04-27 02:01 4.94979 72.62538 28590 ft 451 kts 150°
2026-04-27 02:01 4.92248 72.64056 28018 ft 447 kts 150°
2026-04-27 02:01 4.89536 72.65563 27453 ft 443 kts 150°
2026-04-27 02:02 4.86853 72.67054 26912 ft 439 kts 150°
2026-04-27 02:02 4.84186 72.68536 26352 ft 436 kts 150°
2026-04-27 02:02 4.81534 72.70010 25817 ft 434 kts 150°
2026-04-27 02:02 4.78899 72.71474 25268 ft 432 kts 150°
2026-04-27 02:03 4.76279 72.72930 24724 ft 430 kts 150°
2026-04-27 02:03 4.73668 72.74381 24184 ft 428 kts 149°
2026-04-27 02:03 4.71064 72.75827 23653 ft 427 kts 149°
2026-04-27 02:03 4.68463 72.77272 23063 ft 426 kts 149°
2026-04-27 02:04 4.65878 72.78708 22483 ft 424 kts 149°
2026-04-27 02:04 4.63343 72.80116 21959 ft 421 kts 149°
2026-04-27 02:04 4.60788 72.81534 21429 ft 418 kts 149°
2026-04-27 02:04 4.58251 72.82943 20929 ft 415 kts 149°
2026-04-27 02:05 4.55734 72.84340 20421 ft 412 kts 149°
2026-04-27 02:05 4.53221 72.85735 19923 ft 410 kts 149°
2026-04-27 02:05 4.50736 72.87115 19418 ft 408 kts 149°
2026-04-27 02:05 4.48255 72.88492 18896 ft 406 kts 149°
2026-04-27 02:06 4.45787 72.89863 18407 ft 405 kts 149°
2026-04-27 02:06 4.43323 72.91230 17856 ft 404 kts 149°
2026-04-27 02:06 4.40876 72.92588 17322 ft 401 kts 149°
2026-04-27 02:06 4.38470 72.93923 16815 ft 398 kts 149°
2026-04-27 02:07 4.36051 72.95265 16311 ft 396 kts 149°
2026-04-27 02:07 4.33650 72.96597 15817 ft 393 kts 149°
2026-04-27 02:07 4.31266 72.97920 15327 ft 391 kts 149°
2026-04-27 02:07 4.28893 72.99236 14839 ft 388 kts 149°
2026-04-27 02:08 4.26534 73.00545 14341 ft 387 kts 149°
2026-04-27 02:08 4.24178 73.01852 13841 ft 385 kts 149°
2026-04-27 02:08 4.21859 73.03138 13613 ft 369 kts 149°
2026-04-27 02:08 4.19691 73.04338 13435 ft 344 kts 149°
2026-04-27 02:09 4.17681 73.05450 13224 ft 324 kts 149°
2026-04-27 02:09 4.15746 73.06523 12857 ft 311 kts 149°
2026-04-27 02:09 4.13873 73.07563 12337 ft 305 kts 149°
2026-04-27 02:09 4.12024 73.08590 11721 ft 302 kts 149°
2026-04-27 02:10 4.10192 73.09608 11104 ft 301 kts 149°
2026-04-27 02:10 4.08357 73.10627 10569 ft 304 kts 149°
2026-04-27 02:10 4.06516 73.11648 10301 ft 300 kts 149°
2026-04-27 02:10 4.04701 73.12655 10054 ft 296 kts 149°
2026-04-27 02:11 4.02904 73.13651 9741 ft 295 kts 150°
2026-04-27 02:11 4.01109 73.14646 9392 ft 294 kts 150°
2026-04-27 02:11 3.99333 73.15631 9133 ft 290 kts 150°
2026-04-27 02:11 3.97574 73.16605 8938 ft 287 kts 150°
2026-04-27 02:12 3.95951 73.17727 8700 ft 285 kts 130°
2026-04-27 02:12 3.95001 73.19459 8556 ft 287 kts 103°
2026-04-27 02:12 3.94809 73.21443 8435 ft 288 kts 89°
2026-04-27 02:12 3.94834 73.23447 8298 ft 286 kts 89°
2026-04-27 02:13 3.94847 73.25394 8133 ft 279 kts 89°
2026-04-27 02:13 3.94853 73.27310 7970 ft 272 kts 89°
2026-04-27 02:13 3.94856 73.29177 7804 ft 264 kts 89°
2026-04-27 02:13 3.94860 73.30994 7643 ft 257 kts 89°
2026-04-27 02:14 3.94866 73.32770 7450 ft 254 kts 89°
2026-04-27 02:14 3.94872 73.34545 7080 ft 257 kts 89°
2026-04-27 02:14 3.94877 73.36348 6696 ft 259 kts 89°
2026-04-27 02:14 3.94881 73.38152 6373 ft 257 kts 89°
2026-04-27 02:15 3.94885 73.39903 6037 ft 245 kts 89°
2026-04-27 02:15 3.94887 73.41015 5829 ft 237 kts 89°
2026-04-27 02:15 3.94890 73.43128 5509 ft 224 kts 89°
2026-04-27 02:15 3.94891 73.44695 5318 ft 225 kts 89°
2026-04-27 02:16 3.94893 73.46259 5124 ft 225 kts 89°
2026-04-27 02:16 3.94893 73.47296 5004 ft 225 kts 89°
2026-04-27 02:16 3.94894 73.48861 4821 ft 224 kts 89°
2026-04-27 02:16 3.94900 73.50432 4500 ft 227 kts 86°
2026-04-27 02:17 3.95350 73.51903 4191 ft 217 kts 51°
2026-04-27 02:17 3.96513 73.52756 4054 ft 208 kts 16°
2026-04-27 02:17 3.97920 73.52980 3830 ft 205 kts
2026-04-27 02:17 3.99349 73.53082 3561 ft 206 kts
2026-04-27 02:18 4.00780 73.53108 3299 ft 205 kts
2026-04-27 02:18 4.02197 73.53110 3047 ft 201 kts 360°
2026-04-27 02:18 4.03587 73.53109 2783 ft 199 kts 360°
2026-04-27 02:18 4.04958 73.53108 2550 ft 193 kts 360°
2026-04-27 02:19 4.06283 73.53107 2292 ft 188 kts 359°
2026-04-27 02:19 4.07546 73.53106 2061 ft 174 kts 359°
2026-04-27 02:19 4.08737 73.53106 1840 ft 173 kts 358°
2026-04-27 02:19 4.09928 73.53105 1616 ft 168 kts 358°
2026-04-27 02:20 4.11067 73.53105 1406 ft 158 kts 359°
2026-04-27 02:20 4.12145 73.53104 1216 ft 153 kts 358°
2026-04-27 02:20 4.13218 73.53106 1020 ft 155 kts 359°
2026-04-27 02:20 4.14307 73.53110 846 ft 157 kts 358°
2026-04-27 02:21 4.15405 73.53102 658 ft 157 kts 359°
2026-04-27 02:21 4.16494 73.53095 459 ft 156 kts 359°
2026-04-27 02:21 4.17579 73.53098 242 ft 156 kts 359°
2026-04-27 02:21 4.18654 73.53101 41 ft 155 kts 358°
2026-04-27 02:22 4.19665 73.53101 17 ft 126 kts
2026-04-27 02:22 4.20355 73.53099 17 ft 72 kts 360°
2026-04-27 02:22 4.20682 73.53100 17 ft 31 kts
2026-04-27 02:22 4.20859 73.53100 17 ft 19 kts
2026-04-27 02:23 4.20927 73.53054 17 ft 12 kts 276°
2026-04-27 02:23 4.20928 73.52973 17 ft 12 kts 271°
2026-04-27 02:23 4.20887 73.52912 17 ft 12 kts 200°
2026-04-27 02:23 4.20808 73.52893 17 ft 12 kts 189°
2026-04-27 02:24 4.20727 73.52890 17 ft 13 kts 179°
2026-04-27 02:24 4.20622 73.52891 17 ft 18 kts 179°
2026-04-27 02:24 4.20480 73.52894 17 ft 23 kts 179°
2026-04-27 02:24 4.20322 73.52896 17 ft 23 kts 179°
2026-04-27 02:25 4.20165 73.52899 17 ft 23 kts 179°
2026-04-27 02:25 4.20007 73.52901 17 ft 23 kts 179°
2026-04-27 02:25 4.19849 73.52904 17 ft 23 kts 179°
2026-04-27 02:25 4.19693 73.52907 17 ft 23 kts 179°
2026-04-27 02:26 4.19536 73.52909 17 ft 23 kts 179°
2026-04-27 02:26 4.19379 73.52912 17 ft 23 kts 179°
2026-04-27 02:26 4.19222 73.52914 17 ft 23 kts 179°
2026-04-27 02:26 4.19065 73.52917 17 ft 23 kts 179°
2026-04-27 02:27 4.18909 73.52919 17 ft 23 kts 179°
2026-04-27 02:27 4.18752 73.52922 17 ft 23 kts 179°
2026-04-27 02:27 4.18596 73.52925 17 ft 23 kts 179°
2026-04-27 02:27 4.18439 73.52927 17 ft 22 kts 179°
2026-04-27 02:28 4.18285 73.52930 17 ft 22 kts 179°
2026-04-27 02:28 4.18177 73.52932 17 ft 8 kts 179°
2026-04-27 02:28 4.18130 73.52922 19 ft 7 kts 224°
2026-04-27 02:28 4.18128 73.52876 17 ft 7 kts 298°
2026-04-27 02:29 4.18160 73.52863 17 ft 4 kts 359°
2026-04-27 02:29 4.18190 73.52863 17 ft 5 kts 359°
2026-04-27 02:29 4.18211 73.52841 17 ft 5 kts 287°
2026-04-27 02:29 4.18213 73.52812 17 ft 4 kts 270°
2026-04-27 02:30 4.18213 73.52793 17 ft 2 kts 268°
2026-04-27 02:30 4.18213 73.52784 17 ft 1 kts 270°
2026-04-27 02:30 4.18213 73.52783 17 ft 0 kts 270°